Weather History for La Crosse, WI

Change the Weather History Date:

Monday, February 18, 2013

  Actual Average Record
Temperature  
Mean Temperature 28 °F 24 °F  
Max Temperature 40 °F 32 °F 64 °F (1981)
Min Temperature 16 °F 15 °F -21 °F (2006)
Degree Days  
Heating Degree Days 37 42  
Month to date heating degree days 822 797  
Since 1 July heating degree days 4907 5116  
Cooling Degree Days 0 0  
Month to date cooling degree days 0 0  
Year to date cooling degree days 0 0  
Moisture  
Dew Point 22 °F    
Average Humidity 77    
Maximum Humidity 89    
Minimum Humidity 64    
Precipitation  
Precipitation T in 0.04 in 0.90 in (1961)
Month to date precipitation 0.85 0.63  
Year to date precipitation 1.94 1.75  
Snow  
Snow T in 0.20 in 5.60 in (1962)
Month to date snowfall 7.7 5.4  
Since 1 July snowfall 32.6 31.7  
Snow Depth 4.00 in    
Sea Level Pressure  
Sea Level Pressure 29.63 in    
Wind  
Wind Speed 12 mph (WSW)    
Max Wind Speed 22 mph    
Max Gust Speed 28 mph    
Visibility 8 miles    
Events Snow    
T = Trace of Precipitation, MM = Missing Value Source: NWS Daily Summary

Daily Weather History Graph

Daily Weather History Graph

Search for Another Location

Airport:

Trip Planner

Search our weather history database for the weather conditions in past years. The results will help you decide how hot, cold, wet, or windy it might be!

Date:

Astronomy

Feb. 18, 2013 Rise Set
Actual Time 6:59 AM CST 5:39 PM CST
Civil Twilight 6:29 AM CST 6:08 PM CST
Nautical Twilight 5:56 AM CST 6:42 PM CST
Astronomical Twilight 5:22 AM CST 7:15 PM CST
Moon 11:19 AM CST (2/18) 1:44 AM CST (2/18)
Length of Visible Light 11h 39m
Length of Day
10h 40m
First Quarter, 58% of the Moon is Illuminated
Feb 18
First Quarter
Feb 25
Full
Mar 4
Last Quarter
Mar 11
New
Mar 19
First Quarter

Hourly Weather History & Observations

Time (CST) Temp. Windchill Dew Point Humidity Pressure Visibility Wind Dir Wind Speed Gust Speed Precip Events Conditions
12:53 AM 28.9 °F 17.7 °F 19.9 °F 69% 29.77 in 10.0 mi SSE 15.0 mph - N/A   Clear
1:53 AM 28.9 °F 17.7 °F 19.9 °F 69% 29.73 in 10.0 mi SSE 15.0 mph - N/A   Clear
2:53 AM 28.9 °F 18.6 °F 21.0 °F 72% 29.70 in 10.0 mi SSE 12.7 mph - N/A   Clear
3:53 AM 28.9 °F 19.8 °F 21.0 °F 72% 29.68 in 10.0 mi SSE 10.4 mph - N/A   Clear
4:53 AM 28.9 °F 21.9 °F 21.9 °F 75% 29.66 in 10.0 mi SSE 6.9 mph - N/A   Clear
5:53 AM 28.9 °F 21.1 °F 21.9 °F 75% 29.64 in 10.0 mi South 8.1 mph - N/A   Clear
6:53 AM 28.0 °F 20.0 °F 21.9 °F 78% 29.62 in 10.0 mi South 8.1 mph - N/A   Clear
8:53 AM 30.9 °F 23.5 °F 24.1 °F 76% 29.61 in 10.0 mi SSE 8.1 mph - N/A   Clear
9:53 AM 34.0 °F 26.6 °F 26.1 °F 73% 29.59 in 10.0 mi South 9.2 mph - N/A   Clear
10:53 AM 36.0 °F 29.0 °F 27.0 °F 70% 29.58 in 10.0 mi South 9.2 mph - N/A   Scattered Clouds
11:00 AM 35.6 °F 28.6 °F 26.6 °F 70% 29.55 in 10.0 mi South 9.2 mph - N/A   Mostly Cloudy
11:53 AM 37.0 °F 31.6 °F 28.0 °F 70% 29.56 in 10.0 mi South 6.9 mph - N/A   Overcast
12:53 PM 37.9 °F 34.4 °F 28.9 °F 70% 29.55 in 10.0 mi WSW 4.6 mph - N/A   Overcast
1:53 PM 39.0 °F 34.8 °F 28.9 °F 67% 29.56 in 10.0 mi West 5.8 mph - N/A   Overcast
2:53 PM 37.0 °F 28.1 °F 30.0 °F 76% 29.58 in 10.0 mi West 15.0 mph - N/A   Overcast
3:53 PM 33.1 °F 22.6 °F 30.0 °F 89% 29.59 in 5.0 mi WNW 16.1 mph - N/A   Overcast
4:25 PM 30.2 °F 19.3 °F 26.6 °F 86% 29.56 in 6.0 mi West 15.0 mph - 0.00 in Snow Light Snow
4:40 PM 30.2 °F 18.1 °F 24.8 °F 80% 29.56 in 2.5 mi WNW 18.4 mph 27.6 mph 0.00 in Snow Light Snow
4:49 PM 30.2 °F 19.3 °F 24.8 °F 80% 29.56 in 1.5 mi WNW 15.0 mph - 0.00 in Snow Light Snow
4:53 PM 30.0 °F 18.7 °F 24.1 °F 79% 29.60 in 2.0 mi WNW 16.1 mph - 0.00 in Snow Light Snow
5:32 PM 28.4 °F 18.0 °F 21.2 °F 74% 29.58 in 5.0 mi West 12.7 mph - 0.00 in Snow Light Snow
5:53 PM 27.0 °F 14.7 °F 19.9 °F 75% 29.64 in 10.0 mi WNW 16.1 mph - 0.00 in   Overcast
6:53 PM 23.0 °F 10.1 °F 16.0 °F 74% 29.67 in 10.0 mi West 15.0 mph - N/A   Overcast
7:53 PM 21.0 °F 6.6 °F 14.0 °F 74% 29.67 in 10.0 mi NW 17.3 mph - N/A   Overcast
8:53 PM 19.0 °F 3.6 °F 12.9 °F 77% 29.68 in 10.0 mi NW 18.4 mph 25.3 mph N/A   Overcast
9:53 PM 18.0 °F 4.2 °F 12.0 °F 78% 29.70 in 10.0 mi WNW 13.8 mph - N/A   Overcast
10:53 PM 17.1 °F 3.6 °F 10.9 °F 77% 29.71 in 6.0 mi WNW 12.7 mph 25.3 mph 0.00 in Snow Light Snow
11:53 PM 16.0 °F 0.6 °F 9.0 °F 74% 29.72 in 9.0 mi WNW 16.1 mph - 0.00 in   Overcast